Regional Weather Roundup
Issued by NWS

Home | Current Version | Previous Version | Text Only | Print | Product List | Glossary On
Versions: 1 2 3 4 5 6 7 8 9 10 11 12 13 14 15 16 17 18 19 20 21 22 23 24 25 26 27 28 29 30 31 32 33 34 35 36 37 38 39 40 41 42 43 44 45 46 47 48 49 50
000
ASUS44 KLIX 020711
RWRLA
LOUISIANA WEATHER ROUNDUP
NATIONAL WEATHER SERVICE NEW ORLEANS LA
200 AM CDT WED SEP 02 2015

NOTE: "FAIR" INDICATES FEW OR NO CLOUDS BELOW 12,000 FEET WITH NO
      SIGNIFICANT WEATHER AND/OR OBSTRUCTIONS TO VISIBILITY.
      SKY/WX - SKY CONDITION AND SIGNIFICANT WEATHER.
      TMP - AIR TEMPERATURE.    DP   - DEWPOINT TEMPERATURE.
      RH  - RELATIVE HUMIDITY.  PRES - PRESSURE.
      HX  - HEAT INDEX.         WCI  - WIND CHILL INDEX.

*  THESE STATIONS ARE NOT NWS OR FAA STATIONS AND ARE NOT UNDER
   NWS QUALITY CONTROL.

LAZ040-048-061>063-065-066-069-020800-
SOUTHEAST LOUISIANA

CITY           SKY/WX    TMP DP  RH WIND       PRES   REMARKS
N.O. AUDUBON   NOT AVBL
N.O. INTL ARPT CLOUDY    80  72  76 CALM      30.05F
N.O. LAKEFRONT CLOUDY    82  72  71 S3        30.05F
N.O. DOWNTOWN* FAIR      84  72  65 CALM      30.06F
RESERVE*       FAIR      78  73  86 CALM      30.04F
SLIDELL        CLOUDY    75  73  93 CALM      30.05F
BATON ROUGE    CLOUDY    77  71  82 CALM      30.05F
BOOTHVILLE     MOCLDY    82  76  81 CALM      30.05F
BELLE CHASSE   CLOUDY    76  74  93 CALM      30.04F
BOGALUSA*      NOT AVBL
GALLIANO*      CLOUDY    77  74  91 CALM      30.03F
NEW ROADS*     FAIR      75  72  90 CALM      30.05F
GONZALES*      FAIR      75  75 100 CALM      30.04F
HAMMOND*       CLOUDY    77  70  78 CALM      30.07F
HOUMA*         LGT RAIN  76  74  93 CALM      30.03F
PORT FOURCHON* SUNNY     84  72  65 CALM      30.04F

$$

LAZ041-044-053-054-020800-
SOUTHWEST LOUISIANA

CITY           SKY/WX    TMP DP  RH WIND       PRES   REMARKS
LAKE CHARLES   CLOUDY    75  73  93 NE3       30.05S
LAFAYETTE      CLOUDY    75  72  90 NE3       30.05F
PATTERSON      CLOUDY    77  73  88 CALM      30.05F
SALT POINT       N/A     77  75  93 CALM      30.01F
NEW IBERIA     CLOUDY    79  75  87 NW5       30.05F
CHENAULT AIRPK LGT RAIN  74  73  96 CALM      30.06S

$$

LAZ027-028-020800-
CENTRAL LOUISIANA

CITY           SKY/WX    TMP DP  RH WIND       PRES   REMARKS
FORT POLK      CLOUDY    72  70  93 NE2       30.05S
ALEXANDRIA INT CLOUDY    74  71  91 CALM      30.04S
ALEXANDRIA     CLOUDY    76  71  85 CALM      30.05F

$$

LAZ001-002-020800-
NORTHWEST LOUISIANA

CITY           SKY/WX    TMP DP  RH WIND       PRES   REMARKS
SHREVEPORT     MOCLDY    73  69  87 CALM      30.05S
BARKSDALE AFB  MOCLDY    72  69  89 CALM      30.05S
DTN SHREVEPORT PTCLDY    74  69  85 CALM      30.06S

$$

LAZ014-016-020800-
NORTHEAST LOUISIANA

CITY           SKY/WX    TMP DP  RH WIND       PRES   REMARKS
MONROE         CLOUDY    74  69  85 N5        30.05F
TALLULAH       CLOUDY    75  70  84 SW3       30.04F

$$



USA.gov is the U.S. government's official web portal to all federal, state and local government web resources and services.